Location: Newark
(42.8200°N, 13.1900°E)
Time: 14:07:05
(UTC+00:00)

Hubble Space Telescope - Visible Passes

Search period start: 07 April 2020 00:00
Search period end: 17 April 2020 00:00
Orbit: 536 x 540 km, 28.5° (Epoch: 07 April)

Date Brightness Start Highest point End Pass type
(mag) Time Alt. Az. Time Alt. Az. Time Alt. Az.
09 Apr 3.0 18:59:14 10° S 19:00:07 11° S 19:00:38 10° S visible
10 Apr 3.0 18:48:16 10° SSW 18:49:19 11° S 18:50:22 10° SSE visible
11 Apr 3.1 18:37:28 10° SSW 18:38:31 11° S 18:39:34 10° SSE visible
12 Apr 3.1 18:26:50 10° SSW 18:27:43 11° S 18:28:35 10° S visible
13 Apr 3.3 18:16:38 10° S 18:16:54 10° S 18:17:10 10° S visible
